Regional Weather Roundup
Issued by NWS Little Rock, AR

Home | Current Version | Previous Version | Graphics & Text | Print | Product List | Glossary On
Versions: 1 2 3 4 5 6 7 8 9 10 11 12 13 14 15 16 17 18 19 20 21 22 23 24 25 26 27 28 29 30 31 32 33 34 35 36 37 38 39 40 41 42 43 44 45 46 47 48 49 50
000
ASUS44 KLZK 211105
RWRLZK

WEATHER ROUNDUP FOR ARKANSAS
NATIONAL WEATHER SERVICE LITTLE ROCK AR
600 AM CDT MON AUG 21 2017

NOTE: "FAIR" INDICATES FEW OR NO CLOUDS BELOW 12,000 FEET WITH NO
SIGNIFICANT WEATHER AND/OR OBSTRUCTIONS TO VISIBILITY.

ARZ001-003-010-029-211200-
NORTHWEST ARKANSAS

CITY           SKY/WX    TMP DP  RH WIND       PRES   REMARKS
FAYETTEVILLE   CLEAR     69  69 100 CALM      30.09S
FORT SMITH     CLEAR     74  73  97 NE5       30.06R
HARRISON       CLEAR     74  72  93 CALM      30.12R
BENTONVILLE    CLEAR     73  68  83 S3        30.10R
ROGERS         PTCLDY    73  70  90 E5        30.11R
SILOAM SPGS    CLEAR     73  68  83 S6        30.09R
HIGHFILL       CLEAR     73  71  93 CALM      30.10R
SPRINGDALE     CLEAR     73  72  94 CALM      30.11
$$

ARZ004-005-016-211200-
NORTH CENTRAL ARKANSAS

CITY           SKY/WX    TMP DP  RH WIND       PRES   REMARKS
BATESVILLE     CLEAR     75  72  88 CALM      30.09R
FLIPPIN        CLEAR     72  66  83 CALM      30.08R
MTN HOME       CLEAR     71  71 100 E3        30.10R
$$

ARZ040-041-211200-
WEST CENTRAL ARKANSAS

CITY           SKY/WX    TMP DP  RH WIND       PRES   REMARKS
MENA           PTCLDY    72  72 100 CALM      30.12R
MOUNT IDA      CLEAR     72  69  90 CALM      30.09R
$$

ARZ009-017-025-026-028-211200-
NORTHEAST ARKANSAS

CITY           SKY/WX    TMP DP  RH WIND       PRES   REMARKS
JONESBORO      CLEAR     73  73 100 CALM      30.09R
NEWPORT        CLEAR     73  72  96 CALM      30.08R
WALNUT RIDGE   CLEAR     72  70  94 CALM      30.09R
BLYTHEVILLE    CLEAR     75  74  96 S3        30.10R
$$

ARZ022-023-033-042-044-211200-
CENTRAL ARKANSAS

CITY           SKY/WX    TMP DP  RH WIND       PRES   REMARKS
LITTLE ROCK    PTCLDY    76  76 100 CALM      30.09R
N LITTLE ROCK    N/A     77  75  93 CALM      30.09R
JACKSONVILLE   CLEAR     77  77 100 CALM      30.08R
CONWAY           N/A     75  75 100 CALM      30.06S FOG
SEARCY         CLEAR     74  74 100 CALM      30.10
HOT SPRINGS    CLEAR     76  75  97 CALM      30.10R
RUSSELLVILLE   CLEAR     75  74  96 CALM      30.07S FOG
$$

ARZ036-211200-
EAST ARKANSAS

CITY           SKY/WX    TMP DP  RH WIND       PRES   REMARKS
WEST MEMPHIS   CLEAR     76  74  93 S3        30.08R
$$

ARZ050-053-066-070-073-211200-
SOUTHWEST ARKANSAS

CITY           SKY/WX    TMP DP  RH WIND       PRES   REMARKS
ARKADELPHIA    FOG       71  71 100 CALM      30.10R VSB 1/2
CAMDEN         PTCLDY    73  70  88 CALM      30.08S FOG
TEXARKANA      CLEAR     73  73 100 CALM      30.09S
EL DORADO      CLEAR     73  73 100 CALM      30.10R
DE QUEEN       CLEAR     73  73 100 CALM      30.07R
$$

ARZ056-057-069-211200-
SOUTHEAST ARKANSAS

CITY           SKY/WX    TMP DP  RH WIND       PRES   REMARKS
PINE BLUFF     CLEAR     75  74  96 CALM      30.10R
MONTICELLO     CLEAR     76  74  93 CALM      30.09S

$$





USA.gov is the U.S. government's official web portal to all federal, state and local government web resources and services.